Location: Home
(42.5358°N, 72.7383°W)
Time: 21:34:59
(UTC-05:00)

Vanguard 2 Rocket - Pass Details

Date: 01 December 2021
Orbit: 554 x 3325 km, 32.9° (Epoch: 21 January)

Event Time Altitude Azimuth Distance (km) Brightness Sun altitude
Rises 21:56:52 0° 267° (W) 4,540 10.8 -60.2°
Reaches altitude 10° 21:59:31 10° 261° (W) 3,863 10.3 -60.6°
Enters shadow 21:59:34 10° 261° (W) 3,851 10.3 -60.6°
Maximum altitude 22:09:48 49° 191° (S) 2,837 - -62.1°
Drops below altitude 10° 22:26:23 10° 125° (SE) 6,029 - -64.3°
Sets 22:31:46 0° 121° (ESE) 7,228 - -65.0°
